Weather History for Corpus Christi, TX

Change the Weather History Date:

Sunday, January 29, 2012

  Actual Average Record
Temperature  
Mean Temperature 55 °F 58 °F  
Max Temperature 67 °F 68 °F 91 °F (2013)
Min Temperature 43 °F 48 °F 25 °F (1951)
Degree Days  
Heating Degree Days 10 8  
Month to date heating degree days 140 255  
Since 1 July heating degree days 453 606  
Cooling Degree Days 0 1  
Month to date cooling degree days 58 29  
Year to date cooling degree days 58 29  
Growing Degree Days 5 (Base 50)    
Moisture  
Dew Point 42 °F    
Average Humidity 62    
Maximum Humidity 77    
Minimum Humidity 46    
Precipitation  
Precipitation 0.00 in 0.05 in 0.54 in (1979)
Month to date precipitation 0.35 1.45  
Year to date precipitation 0.35 1.45  
Snow  
Snow 0.00 in - - ()
Month to date snowfall 0.0  
Since 1 July snowfall 0.0  
Snow Depth 0.00 in    
Sea Level Pressure  
Sea Level Pressure 30.38 in    
Wind  
Wind Speed 10 mph (NE)    
Max Wind Speed 17 mph    
Max Gust Speed 21 mph    
Visibility 10 miles    
Events      
T = Trace of Precipitation, MM = Missing Value Source: NWS Daily Summary

Daily Weather History Graph

Daily Weather History Graph

Search for Another Location

Airport:

Trip Planner

Search our weather history database for the weather conditions in past years. The results will help you decide how hot, cold, wet, or windy it might be!

Date:

Astronomy

Jan. 29, 2012 Rise Set
Actual Time 7:18 AM CST 6:08 PM CST
Civil Twilight 6:53 AM CST 6:32 PM CST
Nautical Twilight 6:25 AM CST 7:00 PM CST
Astronomical Twilight 5:57 AM CST 7:28 PM CST
Moon 10:50 AM CST (1/29) No Moon Set
Length of Visible Light 11h 38m
Length of Day
10h 49m
Waxing Crescent, 37% of the Moon is Illuminated
Jan 29
Waxing Crescent
Jan 30
First Quarter
Feb 7
Full
Feb 14
Last Quarter
Feb 21
New

Hourly Weather History & Observations

Time (CST) Temp. Windchill Dew Point Humidity Pressure Visibility Wind Dir Wind Speed Gust Speed Precip Events Conditions
12:51 AM 48.9 °F - 34.0 °F 56% 30.39 in 10.0 mi North 8.1 mph - N/A   Clear
1:51 AM 48.9 °F - 34.0 °F 56% 30.38 in 10.0 mi NNE 12.7 mph - N/A   Clear
2:51 AM 50.0 °F - 33.1 °F 52% 30.38 in 10.0 mi NNE 10.4 mph - N/A   Clear
3:51 AM 45.0 °F 40.6 °F 33.1 °F 63% 30.39 in 10.0 mi North 8.1 mph - N/A   Clear
4:51 AM 44.1 °F 37.4 °F 32.0 °F 63% 30.38 in 10.0 mi North 13.8 mph - N/A   Clear
5:51 AM 45.0 °F 38.2 °F 33.1 °F 63% 30.40 in 10.0 mi North 15.0 mph - N/A   Clear
6:51 AM 45.0 °F 38.5 °F 32.0 °F 60% 30.42 in 10.0 mi NNE 13.8 mph - N/A   Clear
7:51 AM 46.0 °F 41.0 °F 33.1 °F 61% 30.44 in 10.0 mi NNE 10.4 mph - N/A   Clear
8:51 AM 52.0 °F - 35.1 °F 53% 30.45 in 10.0 mi NNE 11.5 mph - N/A   Clear
9:51 AM 55.9 °F - 37.9 °F 51% 30.46 in 10.0 mi NE 9.2 mph - N/A   Clear
10:51 AM 60.1 °F - 39.9 °F 47% 30.47 in 10.0 mi NE 12.7 mph - N/A   Clear
11:51 AM 64.9 °F - 46.0 °F 50% 30.45 in 10.0 mi ENE 9.2 mph 17.3 mph N/A   Clear
12:51 PM 66.0 °F - 48.0 °F 52% 30.42 in 10.0 mi ENE 11.5 mph - N/A   Partly Cloudy
1:51 PM 66.9 °F - 48.0 °F 51% 30.38 in 10.0 mi East 12.7 mph - N/A   Partly Cloudy
2:51 PM 66.0 °F - 46.0 °F 48% 30.36 in 10.0 mi East 11.5 mph - N/A   Scattered Clouds
3:51 PM 64.9 °F - 46.9 °F 52% 30.35 in 10.0 mi East 15.0 mph - N/A   Partly Cloudy
4:51 PM 64.0 °F - 46.9 °F 54% 30.35 in 10.0 mi East 13.8 mph - N/A   Partly Cloudy
5:51 PM 62.1 °F - 48.9 °F 62% 30.34 in 10.0 mi East 16.1 mph - N/A   Clear
6:51 PM 60.1 °F - 50.0 °F 69% 30.34 in 10.0 mi East 10.4 mph - N/A   Clear
7:51 PM 57.9 °F - 48.9 °F 72% 30.35 in 10.0 mi East 5.8 mph - N/A   Clear
8:51 PM 57.0 °F - 48.9 °F 74% 30.35 in 10.0 mi East 4.6 mph - N/A   Clear
9:51 PM 55.9 °F - 48.9 °F 77% 30.34 in 10.0 mi East 4.6 mph - N/A   Clear
10:51 PM 57.0 °F - 50.0 °F 77% 30.32 in 10.0 mi ENE 4.6 mph - N/A   Clear
11:51 PM 55.0 °F - 50.0 °F 83% 30.32 in 10.0 mi NE 5.8 mph - N/A   Clear